Location: Skalnate Pleso
(49.1889°N, 20.2450°E)
Time: 12:41:27
(UTC+02:00)

Cosmos 1605 Rocket - Pass Details

Date: 29 February 2020
Orbit: 944 x 1007 km, 82.9° (Epoch: 06 April)

Event Time Altitude Azimuth Distance (km) Brightness Sun altitude
Rises 03:06:30 0° 348° (NNW) 3,669 7.2 -32.0°
Reaches altitude 10° 03:09:02 10° 346° (NNW) 2,709 6.4 -31.7°
Enters shadow 03:11:59 29° 338° (NNW) 1,670 5.2 -31.2°
